TimeCST,TemperatureF,Dew PointF,Humidity,Sea Level PressureIn,VisibilityMPH,Wind Direction,Wind SpeedMPH,Gust SpeedMPH,PrecipitationIn,Events,Conditions,WindDirDegrees,DateUTC
12:13 AM,31.1,27.5,87,30.07,10.0,Calm,Calm,-,N/A,,Overcast,0,2013-11-06 06:13:00
12:32 AM,31.1,27.0,85,30.07,10.0,Calm,Calm,-,N/A,,Overcast,0,2013-11-06 06:32:00
12:53 AM,31.1,27.0,85,30.07,10.0,Calm,Calm,-,N/A,,Overcast,0,2013-11-06 06:53:00
1:13 AM,31.1,26.6,83,30.07,10.0,Calm,Calm,-,N/A,,Overcast,0,2013-11-06 07:13:00
1:32 AM,31.5,26.6,82,30.07,10.0,NW,3.5,-,N/A,,Overcast,320,2013-11-06 07:32:00
1:52 AM,31.6,26.4,81,30.08,10.0,Calm,Calm,-,N/A,,Overcast,0,2013-11-06 07:52:00
2:13 AM,31.5,26.2,81,30.07,10.0,Calm,Calm,-,N/A,,Overcast,0,2013-11-06 08:13:00
2:33 AM,31.1,26.6,83,30.06,10.0,Calm,Calm,-,N/A,,Overcast,0,2013-11-06 08:33:00
2:53 AM,31.1,27.0,85,30.07,10.0,Calm,Calm,-,N/A,,Overcast,0,2013-11-06 08:53:00
3:13 AM,30.9,26.4,83,30.07,10.0,Calm,Calm,-,N/A,,Overcast,0,2013-11-06 09:13:00
3:32 AM,30.4,25.7,83,30.06,10.0,Calm,Calm,-,N/A,,Overcast,0,2013-11-06 09:32:00
3:53 AM,29.8,25.3,83,30.07,10.0,Calm,Calm,-,N/A,,Overcast,0,2013-11-06 09:53:00
4:13 AM,29.1,24.8,84,30.07,10.0,WNW,3.5,-,N/A,,Mostly Cloudy,290,2013-11-06 10:13:00
4:33 AM,27.9,24.6,88,30.07,10.0,WNW,3.5,-,N/A,,Scattered Clouds,290,2013-11-06 10:33:00
4:52 AM,27.7,24.1,86,30.06,10.0,NW,3.5,-,N/A,,Clear,310,2013-11-06 10:52:00
5:13 AM,26.8,22.6,84,30.07,10.0,WNW,4.6,-,N/A,,Clear,290,2013-11-06 11:13:00
5:32 AM,26.2,22.8,87,30.07,10.0,WNW,4.6,-,N/A,,Clear,300,2013-11-06 11:32:00
5:53 AM,25.9,21.4,83,30.06,10.0,WNW,4.6,-,N/A,,Clear,300,2013-11-06 11:53:00
6:12 AM,25.7,20.8,82,30.07,10.0,WNW,3.5,-,N/A,,Clear,300,2013-11-06 12:12:00
6:33 AM,23.4,18.5,82,30.07,10.0,West,3.5,-,N/A,,Clear,270,2013-11-06 12:33:00
6:53 AM,20.5,17.2,87,30.07,10.0,West,4.6,-,N/A,,Clear,260,2013-11-06 12:53:00
7:12 AM,18.1,16.2,92,30.07,10.0,West,4.6,-,N/A,,Clear,270,2013-11-06 13:12:00
7:33 AM,20.3,18.3,92,30.08,10.0,West,4.6,-,N/A,,Clear,270,2013-11-06 13:33:00
7:52 AM,21.0,18.0,88,30.08,10.0,West,4.6,-,N/A,,Clear,270,2013-11-06 13:52:00
8:12 AM,22.3,18.7,86,30.09,10.0,West,4.6,-,N/A,,Clear,270,2013-11-06 14:12:00
8:33 AM,25.2,19.9,81,30.09,10.0,West,3.5,-,N/A,,Clear,280,2013-11-06 14:33:00
8:52 AM,26.6,21.0,79,30.09,10.0,West,5.8,-,N/A,,Clear,270,2013-11-06 14:52:00
9:13 AM,28.2,21.2,75,30.09,10.0,West,5.8,-,N/A,,Clear,280,2013-11-06 15:13:00
9:32 AM,30.2,21.2,69,30.10,10.0,WNW,5.8,-,N/A,,Clear,290,2013-11-06 15:32:00
9:52 AM,31.8,19.8,61,30.09,10.0,WNW,6.9,-,N/A,,Clear,300,2013-11-06 15:52:00
10:13 AM,32.7,21.0,62,30.10,10.0,West,8.1,-,N/A,,Clear,280,2013-11-06 16:13:00
10:32 AM,33.8,21.0,60,30.10,10.0,WNW,8.1,-,N/A,,Clear,300,2013-11-06 16:32:00
10:52 AM,34.9,21.7,59,30.11,10.0,WNW,9.2,-,N/A,,Clear,300,2013-11-06 16:52:00
11:13 AM,36.0,22.6,58,30.10,10.0,WNW,8.1,-,N/A,,Clear,290,2013-11-06 17:13:00
11:33 AM,37.4,23.4,57,30.10,10.0,WNW,11.5,-,N/A,,Clear,290,2013-11-06 17:33:00
11:53 AM,38.5,23.7,55,30.10,10.0,WNW,9.2,-,N/A,,Clear,290,2013-11-06 17:53:00
12:12 PM,39.7,24.6,55,30.10,10.0,West,11.5,-,N/A,,Scattered Clouds,280,2013-11-06 18:12:00
12:33 PM,39.9,23.2,51,30.09,10.0,WNW,8.1,17.3,N/A,,Scattered Clouds,290,2013-11-06 18:33:00
12:53 PM,40.3,23.4,51,30.09,10.0,WNW,11.5,19.6,N/A,,Clear,290,2013-11-06 18:53:00
1:12 PM,41.0,24.6,52,30.09,10.0,West,10.4,18.4,N/A,,Mostly Cloudy,270,2013-11-06 19:12:00
1:32 PM,40.3,24.1,52,30.09,10.0,WNW,10.4,17.3,N/A,,Overcast,290,2013-11-06 19:32:00
1:53 PM,39.9,24.1,53,30.09,10.0,NW,9.2,-,N/A,,Overcast,310,2013-11-06 19:53:00
2:12 PM,40.5,25.0,54,30.10,10.0,WNW,8.1,-,N/A,,Overcast,290,2013-11-06 20:12:00
2:33 PM,40.6,23.7,51,30.09,10.0,West,8.1,-,N/A,,Overcast,280,2013-11-06 20:33:00
2:53 PM,40.1,23.0,51,30.10,10.0,WSW,5.8,-,N/A,,Overcast,250,2013-11-06 20:53:00
3:13 PM,40.3,23.9,52,30.10,10.0,West,11.5,-,N/A,,Overcast,260,2013-11-06 21:13:00
3:32 PM,40.1,25.2,55,30.10,10.0,West,8.1,-,N/A,,Mostly Cloudy,260,2013-11-06 21:32:00
3:52 PM,40.5,23.7,51,30.10,10.0,West,6.9,-,N/A,,Mostly Cloudy,260,2013-11-06 21:52:00
4:13 PM,39.0,27.1,62,30.10,10.0,South,8.1,-,N/A,,Overcast,180,2013-11-06 22:13:00
4:33 PM,36.5,27.5,70,30.10,10.0,South,8.1,-,N/A,,Overcast,190,2013-11-06 22:33:00
4:52 PM,35.2,27.0,72,30.10,10.0,SSW,6.9,-,N/A,,Overcast,200,2013-11-06 22:52:00
5:13 PM,34.2,26.6,74,30.10,10.0,South,6.9,-,N/A,,Overcast,190,2013-11-06 23:13:00
5:32 PM,33.3,26.4,76,30.10,10.0,SSW,5.8,-,N/A,,Overcast,200,2013-11-06 23:32:00
5:53 PM,32.7,26.2,77,30.11,10.0,SW,3.5,-,N/A,,Overcast,220,2013-11-06 23:53:00
6:12 PM,32.2,27.0,81,30.11,10.0,SSW,3.5,-,N/A,,Overcast,210,2013-11-07 00:12:00
6:33 PM,32.0,27.1,82,30.11,10.0,SW,3.5,-,N/A,,Overcast,220,2013-11-07 00:33:00
6:52 PM,32.0,27.3,83,30.11,10.0,SW,3.5,-,N/A,,Overcast,230,2013-11-07 00:52:00
7:13 PM,31.1,27.5,87,30.11,10.0,Calm,Calm,-,N/A,,Overcast,0,2013-11-07 01:13:00
7:32 PM,30.2,27.3,89,30.11,10.0,Calm,Calm,-,N/A,,Overcast,0,2013-11-07 01:32:00
7:53 PM,29.5,26.8,90,30.11,10.0,Calm,Calm,-,N/A,,Mostly Cloudy,0,2013-11-07 01:53:00
8:12 PM,29.3,27.1,92,30.11,10.0,Calm,Calm,-,N/A,,Scattered Clouds,0,2013-11-07 02:12:00
8:33 PM,31.8,28.4,87,30.12,10.0,WSW,8.1,-,N/A,,Mostly Cloudy,240,2013-11-07 02:33:00
8:52 PM,32.0,28.0,85,30.13,10.0,WSW,8.1,-,N/A,,Overcast,240,2013-11-07 02:52:00
9:12 PM,32.0,27.5,83,30.13,10.0,WSW,9.2,-,N/A,,Overcast,240,2013-11-07 03:12:00
9:33 PM,31.6,27.3,84,30.13,10.0,WSW,9.2,-,N/A,,Overcast,240,2013-11-07 03:33:00
9:53 PM,30.4,26.6,86,30.14,10.0,WSW,6.9,-,N/A,,Overcast,250,2013-11-07 03:53:00
10:12 PM,29.5,26.4,88,30.15,10.0,WSW,6.9,-,N/A,,Scattered Clouds,250,2013-11-07 04:12:00
10:32 PM,28.9,26.2,90,30.15,10.0,WSW,6.9,-,N/A,,Scattered Clouds,240,2013-11-07 04:32:00
10:53 PM,28.4,25.7,90,30.15,10.0,WSW,5.8,-,N/A,,Clear,240,2013-11-07 04:53:00
11:12 PM,27.5,25.3,92,30.15,10.0,WSW,5.8,-,N/A,,Clear,240,2013-11-07 05:12:00
11:33 PM,27.3,25.5,93,30.15,10.0,WSW,4.6,-,N/A,,Clear,250,2013-11-07 05:33:00
11:52 PM,27.1,25.5,94,30.15,10.0,West,5.8,-,N/A,,Clear,260,2013-11-07 05:52:00